Regional Weather Roundup
Issued by NWS Burlington, VT

Home | Current Version | Previous Version | Text Only | Print | Product List | Glossary On
Versions: 1 2 3 4 5 6 7 8 9 10 11 12 13 14 15 16 17 18 19 20 21 22 23 24 25 26 27 28 29 30 31 32 33 34 35 36 37 38 39 40 41 42 43 44 45 46 47 48 49 50
000
ASUS41 KBTV 242030
RWRBTV
VERMONT REGIONAL WEATHER ROUNDUP
NATIONAL WEATHER SERVICE BURLINGTON VT
400 PM EDT SUN JUL 24 2016

NOTE: "FAIR" INDICATES FEW OR NO CLOUDS BELOW 12,000 FEET WITH NO
SIGNIFICANT WEATHER AND/OR OBSTRUCTIONS TO VISIBILITY.

* THESE REPORTS ARE NOT UNDER NWS QUALITY CONTROL AND/OR DO NOT
  REPORT WEATHER SUCH AS PRECIPITATION AND FOG.

VTZ001>019-242100-
_____VERMONT_____


CITY           SKY/WX    TMP DP  RH WIND       PRES   REMARKS
BURLINGTON     PTSUNNY   77  54  44 NE7       29.98F
MONTPELIER     FAIR      73  53  49 NW5       30.03F
MORRISVILLE    FAIR      75  56  51 N7        30.00F
ST. JOHNSBURY*   N/A     77  55  46 MISG      29.96F
LYNDONVILLE*   FAIR      73  57  57 NW6       30.01S
MIDDLEBURY*    FAIR      78  53  41 NW6       29.98F
RUTLAND*       FAIR      77  58  51 N6        29.99F
HIGHGATE*      FAIR      74  58  57 NW3       29.98S
NEWPORT*       FAIR      72  56  58 CALM      30.00S
BENNINGTON     FAIR      82  56  40 VRB5      29.99S
SUTTON*          N/A     72 N/A N/A MISG        N/A
GALLUP MILLS*    N/A     75 N/A N/A MISG        N/A
UNION VILLAGE*   N/A     81 N/A N/A MISG        N/A
MT. MANSFIELD*   N/A     63 N/A N/A NW13        N/A

_____LAKE CHAMPLAIN_____


CITY           SKY/WX    TMP DP  RH WIND       PRES   REMARKS
BURTON ISLAND*   N/A     75  57  53 NE2         N/A
COLCHESTER RF*   N/A     72  57  60 NE12        N/A
DIAMOND ISL*     N/A     72  57  60 NW10        N/A

$$

NYZ007-026>031-035-052-083-087-242100-
_____NORTHERN NEW YORK_____


CITY           SKY/WX    TMP DP  RH WIND       PRES   REMARKS
PLATTSBURGH    MOSUNNY   73  58  59 E8        29.97F
SARANAC LAKE   SUNNY     77  47  34 VRB5      30.00F
MASSENA        SUNNY     78  54  43 NW5       29.98F
OGDENSBURG*    SUNNY     84  54  34 CALM      29.97F
POTSDAM*       SUNNY     79  61  53 N3        29.98F
STARK FALLS*     N/A    108 N/A N/A NW2         N/A
WATERTOWN      CLOUDY    83  52  34 W9        29.96F
FT DRUM        SUNNY     82  55  39 VRB1      29.97F
ALBANY         PTSUNNY   86  58  38 NE6       29.95F
GLENS FALLS    SUNNY     81  63  54 NE5       29.96S

$$
NHZ002-005-011-242100-
_____NEW HAMPSHIRE_____


CITY           SKY/WX    TMP DP  RH WIND       PRES   REMARKS
LEBANON        MOSUNNY   83  48  29 VRB6      29.95F
KEENE          MOSUNNY   84  54  34 NW9       29.96S
MT WASHINGTON  MOSUNNY   55  34  44 N16         N/A
PLYMOUTH       FAIR      79  52  39 W8        29.95S
WHITEFIELD     MOSUNNY   75  55  49 W3        29.99F

$$

_____REGIONAL QUEBEC LOCATIONS_____


CITY           SKY/WX    TMP DP  RH WIND       PRES   REMARKS
MONTREAL       MOSUNNY   77  59  53 SW10G17   29.96F
QUEBEC CITY    PTSUNNY   77  61  57 SW15      29.91F
SHERBROOKE     MOSUNNY   73  59  60 NW5       29.97F

_____REGIONAL ONTARIO LOCATIONS_____


CITY           SKY/WX    TMP DP  RH WIND       PRES   REMARKS
OTTAWA         MOSUNNY   79  52  38 VRB5      29.97F

______KEY______
VSB  - VISIBILITY IN MILES
WCI  - WIND CHILL INDEX
HX   - HEAT INDEX
$$
NNNN




USA.gov is the U.S. government's official web portal to all federal, state and local government web resources and services.